Current weather by "City, St" or "zip code"  
 

Current Conditions: Custer, Custer County Airport, SD

Fair


72.0 F

Last Updated on Aug 9 2022, 9:53 pm MDT
Humidity: 37%
Wind Speed: E 5.8 mph
Barometer 30.32 in
Dewpoint: 44.1 F
Visibility: 10.00 mi
Precip: --
Heat Index: NA
Wind Chill: NA
Current conditions at:

Custer, Custer County Airport, SD (KCUT)

Lat: 43.73306 Lon: 103.6175

Local Radar Image active severe weather and emergency alerts image image weather storm and storm spotter reports image weather observation monitoring service image
Local
Radar
Active
Alerts
Storm Reports Obs
Monitoring

Sign-up For Email & Text Message Weather Alert Notification Services



Advertise Here

Observation History for Custer, Custer County Airport, SD


Time Wind
(mph)
Vis
(mi)
Weather Precip (in) Temperature (F) Relative
Humidity
Wind
Chill
(F)
Heat
Index
(F)
Pressure
Air Dwpt altimeter
(in)
sea level
(mb)
Rmks
9:53 pm MDT E 5.8 10.00 Fair -- 72.0 44.1 37% NA NA 30.32 1018.2
7:53 pm MDT E 8.1 10.00 Fair -- 79.0 42.1 27% NA NA 30.29 1017.2
6:53 pm MDT NE 9.2 10.00 Fair -- 81.0 42.1 25% NA 79 30.28 1017.3
5:53 pm MDT E 10.4 10.00 Partly Cloudy -- 84.0 41.0 22% NA 81 30.28 1017.4
4:53 pm MDT 5.8 10.00 Partly Cloudy -- 85.0 41.0 21% NA 82 30.27 1017.2
3:53 pm MDT NE 6.9 G 16.1 10.00 Partly Cloudy -- 87.0 39.9 19% NA 84 30.26 1017.4
2:53 pm MDT 10.00 Partly Cloudy -- 88.0 41.0 19% NA 84 30.27 1017.3
1:53 pm MDT 10.00 Fair -- 89.0 33.1 14% NA 85 30.27 1017.2
12:53 pm MDT 10.00 Fair -- 87.0 34.0 15% NA 83 30.28 1017.5
11:53 am MDT N 5.8 10.00 Fair -- 87.0 34.0 15% NA 83 30.29 1017.6
10:53 am MDT N 9.2 10.00 Fair -- 86.0 33.1 15% NA 83 30.29 1017.5
9:53 am MDT N 8.1 10.00 Fair -- 84.0 39.0 20% NA 81 30.28 1017.0
8:53 am MDT N 5.8 10.00 Fair -- 82.0 45.0 27% NA 80 30.27 1016.7
7:53 am MDT NW 3.5 10.00 Fair -- 77.0 46.0 33% NA NA 30.26 1016.1
5:53 am MDT NW 5.8 10.00 Fair -- 66.0 46.0 49% NA NA 30.23 1015.6
4:53 am MDT NW 5.8 10.00 Fair -- 65.0 48.0 54% NA NA 30.22 1015.4
3:53 am MDT NW 4.6 10.00 Fair -- 57.0 48.9 74% 57 NA 30.21 1015.7
2:53 am MDT NW 3.5 10.00 Fair -- 58.0 48.9 72% NA NA 30.21 1015.6
1:53 am MDT W 3.5 10.00 Fair -- 58.0 48.9 72% NA NA 30.21 1015.7
12:53 am MDT NW 4.6 10.00 Fair -- 61.0 48.9 65% 61 NA 30.22 1015.7
11:53 pm MDT W 3.5 10.00 Fair -- 63.0 48.9 60% NA NA 30.21 1015.7

Regional Weather Observation


Mondell Field, WY (KECS)

Fair
81.0 F

Rapid City, Rapid City Regional Airport, SD (KRAP)

Fair
75.0 F

Ellsworth Air Force Base, SD (KRCA)

Fair
79.0 F

Spearfish / Clyde Ice, SD (KSPF)

Fair
68.0 F

Hulett Municipal Airport, WY (KW43)

Fair
77.0 F

Pine Ridge, Pine Ridge Airport, SD (KIEN)

Fair
74.0 F

Advertise Here


Advertise Here